Tracking 29790 objects as of 12-Oct-2024
HD Live streaming from Space Station
objects crossing your sky now

STARLINK-6153

Track STARLINK-6153 now!
10-day predictions
STARLINK-6153 is classified as:


NORAD ID: 56384
Int'l Code: 2023-061L
Perigee: 565.3 km
Apogee: 567.2 km
Inclination: 43.0 °
Period: 95.8 minutes
Semi major axis: 6937 km
RCS: Unknown
Launch date: May 4, 2023
Source: United States (US)
Launch site: AIR FORCE EASTERN TEST RANGE (AFETR)
Your satellite tracking list
Your tracking list is empty




NASA's NSSDC Master Catalog

Two Line Element Set (TLE):
1 56384U 23061L   24286.19108969 -.00000747  00000-0 -40236-4 0  9992
2 56384  43.0022 107.4546 0001360 278.1352  81.9336 15.02526107 79807
Source of the keplerian elements: AFSPC